• In Czech Republic
  • List of Countries
  • For 7 days
  • Water Temperature
  • Satellite Maps
  • Weather Map
  • Weather Widgets
  • user-avatar
    Login

    Hourly Weather Shusha

    Today, 25 September, Tuesday

    Time Temperature Precipitation Wind Pressure Humidity
    00:00 +16°C° 0 mm 1 mps 663 mmHg 66%
    01:00 +16°C° 0 mm 1 mps 662 mmHg 66%
    02:00 +15°C° 0 mm 1 mps 662 mmHg 66%
    03:00 +15°C° 0 mm 1 mps 662 mmHg 66%
    04:00 +15°C° 0 mm 1 mps 662 mmHg 66%
    05:00 +15°C° 0 mm 1 mps 662 mmHg 66%
    06:00 +14°C° 0 mm 1 mps 661 mmHg 67%
    07:00 +16°C° 0 mm 1 mps 662 mmHg 61%
    08:00 +19°C° 0 mm 1 mps 662 mmHg 55%
    09:00 +20°C° 0 mm 2 mps 663 mmHg 49%
    10:00 +23°C° 0 mm 2 mps 662 mmHg 45%
    11:00 +24°C° 0 mm 2 mps 662 mmHg 42%
    12:00 +25°C° 0 mm 2 mps 662 mmHg 38%
    13:00 +25°C° 0 mm 2 mps 662 mmHg 38%
    14:00 +26°C° 0 mm 2 mps 661 mmHg 38%
    15:00 +26°C° 0 mm 2 mps 661 mmHg 37%
    16:00 +24°C° 0 mm 2 mps 660 mmHg 44%
    17:00 +22°C° 0 mm 1 mps 660 mmHg 50%
    18:00 +21°C° 0 mm 1 mps 659 mmHg 56%
    19:00 +20°C° 0 mm 1 mps 660 mmHg 57%
    20:00 +20°C° 0 mm 1 mps 660 mmHg 59%
    21:00 +19°C° 0 mm 1 mps 660 mmHg 60%
    22:00 +19°C° 0 mm 1 mps 660 mmHg 61%
    23:00 +19°C° 0 mm 1 mps 660 mmHg 62%

    Tomorrow, 26 September, Wednesday

    Time Temperature Precipitation Wind Pressure Humidity
    00:00 +18°C° 0 mm 1 mps 660 mmHg 62%
    01:00 +18°C° 0 mm 1 mps 660 mmHg 64%
    02:00 +18°C° 0 mm 1 mps 660 mmHg 65%
    03:00 +16°C° 0 mm 1 mps 660 mmHg 66%
    04:00 +16°C° 0 mm 1 mps 660 mmHg 67%
    05:00 +16°C° 0 mm 1 mps 660 mmHg 68%
    06:00 +16°C° 0 mm 1 mps 660 mmHg 69%
    07:00 +18°C° 0 mm 1 mps 661 mmHg 63%
    08:00 +19°C° 0 mm 2 mps 662 mmHg 56%
    09:00 +21°C° 0 mm 2 mps 662 mmHg 50%
    10:00 +22°C° 0.1 mm 3 mps 662 mmHg 48%
    11:00 +22°C° 0.1 mm 3 mps 662 mmHg 46%
    12:00 +24°C° 0.1 mm 3 mps 662 mmHg 44%
    13:00 +24°C° 0.1 mm 3 mps 662 mmHg 45%
    14:00 +24°C° 0.1 mm 3 mps 662 mmHg 46%
    15:00 +22°C° 0.1 mm 3 mps 662 mmHg 46%
    16:00 +21°C° 0 mm 3 mps 662 mmHg 53%
    17:00 +20°C° 0 mm 3 mps 661 mmHg 60%
    18:00 +18°C° 0 mm 3 mps 661 mmHg 66%
    19:00 +18°C° 0 mm 3 mps 662 mmHg 70%
    20:00 +17°C° 0 mm 3 mps 662 mmHg 75%
    21:00 +16°C° 0 mm 3 mps 662 mmHg 79%
    22:00 +16°C° 0 mm 3 mps 662 mmHg 80%
    23:00 +14°C° 0 mm 3 mps 663 mmHg 80%

    Day after tomorrow, 27 September, Thursday

    Time Temperature Precipitation Wind Pressure Humidity
    00:00 +15°C° 0 mm 2 mps 663 mmHg 81%
    01:00 +15°C° 0 mm 2 mps 663 mmHg 81%
    02:00 +15°C° 0 mm 2 mps 663 mmHg 82%
    03:00 +14°C° 0 mm 2 mps 663 mmHg 82%
    04:00 +14°C° 0 mm 2 mps 663 mmHg 82%
    05:00 +14°C° 0 mm 2 mps 663 mmHg 82%
    06:00 +14°C° 0 mm 2 mps 663 mmHg 83%
    07:00 +15°C° 0 mm 2 mps 664 mmHg 78%
    08:00 +16°C° 0 mm 2 mps 664 mmHg 73%
    09:00 +17°C° 0 mm 2 mps 665 mmHg 68%
    10:00 +17°C° 0 mm 2 mps 665 mmHg 65%
    11:00 +18°C° 0 mm 3 mps 665 mmHg 62%
    12:00 +19°C° 0 mm 3 mps 665 mmHg 58%
    13:00 +19°C° 0 mm 3 mps 665 mmHg 57%
    14:00 +19°C° 0 mm 3 mps 665 mmHg 57%
    15:00 +20°C° 0 mm 3 mps 665 mmHg 56%
    16:00 +19°C° 0 mm 3 mps 664 mmHg 61%
    17:00 +18°C° 0 mm 3 mps 664 mmHg 66%
    18:00 +16°C° 0 mm 3 mps 664 mmHg 71%
    19:00 +16°C° 0 mm 2 mps 665 mmHg 75%
    20:00 +15°C° 0 mm 2 mps 665 mmHg 79%
    21:00 +14°C° 0 mm 2 mps 665 mmHg 82%
    22:00 +14°C° 0 mm 1 mps 665 mmHg 83%
    23:00 +14°C° 0 mm 1 mps 665 mmHg 84%

    28 September, Friday

    Time Temperature Precipitation Wind Pressure Humidity
    00:00 +13°C° 0 mm 1 mps 664 mmHg 84%
    01:00 +13°C° 0 mm 1 mps 664 mmHg 85%
    02:00 +13°C° 0 mm 1 mps 664 mmHg 85%
    03:00 +12°C° 0 mm 0 mps 664 mmHg 86%
    04:00 +13°C° 0 mm 1 mps 664 mmHg 86%
    05:00 +12°C° 0 mm 1 mps 664 mmHg 86%
    06:00 +12°C° 0 mm 1 mps 665 mmHg 87%
    07:00 +14°C° 0 mm 1 mps 665 mmHg 81%
    08:00 +15°C° 0 mm 2 mps 666 mmHg 75%
    09:00 +16°C° 0 mm 2 mps 666 mmHg 70%
    10:00 +17°C° 0 mm 2 mps 666 mmHg 66%
    11:00 +18°C° 0 mm 2 mps 666 mmHg 63%
    12:00 +19°C° 0 mm 3 mps 666 mmHg 59%
    13:00 +19°C° 0 mm 3 mps 666 mmHg 59%
    14:00 +19°C° 0 mm 3 mps 665 mmHg 58%
    15:00 +19°C° 0 mm 3 mps 665 mmHg 58%
    16:00 +18°C° 0 mm 3 mps 665 mmHg 63%
    17:00 +17°C° 0 mm 2 mps 665 mmHg 69%
    18:00 +16°C° 0 mm 2 mps 664 mmHg 74%
    19:00 +16°C° 0 mm 2 mps 664 mmHg 77%
    20:00 +15°C° 0 mm 2 mps 664 mmHg 80%
    21:00 +14°C° 0 mm 1 mps 665 mmHg 83%
    22:00 +14°C° 0 mm 1 mps 664 mmHg 84%
    23:00 +14°C° 0 mm 1 mps 664 mmHg 85%

    29 September, Saturday

    Time Temperature Precipitation Wind Pressure Humidity
    00:00 +12°C° 0 mm 0 mps 663 mmHg 85%
    01:00 +12°C° 0 mm 0 mps 663 mmHg 85%
    02:00 +12°C° 0 mm 0 mps 663 mmHg 85%
    03:00 +12°C° 0 mm 0 mps 663 mmHg 85%
    04:00 +12°C° 0 mm 0 mps 663 mmHg 84%
    05:00 +12°C° 0 mm 0 mps 663 mmHg 83%
    06:00 +12°C° 0 mm 0 mps 663 mmHg 83%
    07:00 +14°C° 0 mm 1 mps 663 mmHg 75%
    08:00 +16°C° 0 mm 1 mps 663 mmHg 68%
    09:00 +18°C° 0 mm 2 mps 664 mmHg 61%
    10:00 +19°C° 0 mm 2 mps 663 mmHg 56%
    11:00 +21°C° 0 mm 2 mps 663 mmHg 52%
    12:00 +22°C° 0 mm 3 mps 663 mmHg 47%
    13:00 +22°C° 0 mm 3 mps 663 mmHg 47%
    14:00 +24°C° 0 mm 3 mps 662 mmHg 46%
    15:00 +24°C° 0 mm 3 mps 662 mmHg 46%
    16:00 +21°C° 0 mm 2 mps 661 mmHg 52%
    17:00 +20°C° 0 mm 2 mps 661 mmHg 59%
    18:00 +19°C° 0 mm 1 mps 661 mmHg 65%
    19:00 +19°C° 0 mm 1 mps 661 mmHg 65%
    20:00 +18°C° 0 mm 1 mps 661 mmHg 66%
    21:00 +18°C° 0 mm 1 mps 661 mmHg 66%
    22:00 +18°C° 0 mm 1 mps 661 mmHg 64%
    23:00 +18°C° 0 mm 1 mps 661 mmHg 63%

    30 September, Sunday

    Time Temperature Precipitation Wind Pressure Humidity
    00:00 +16°C° 0 mm 1 mps 660 mmHg 61%
    01:00 +16°C° 0 mm 1 mps 660 mmHg 60%
    02:00 +16°C° 0 mm 1 mps 660 mmHg 58%
    03:00 +16°C° 0 mm 1 mps 660 mmHg 57%
    04:00 +16°C° 0 mm 1 mps 660 mmHg 56%
    05:00 +16°C° 0 mm 1 mps 660 mmHg 55%
    06:00 +15°C° 0 mm 1 mps 660 mmHg 55%
    07:00 +19°C° 0 mm 1 mps 661 mmHg 50%
    08:00 +21°C° 0 mm 1 mps 661 mmHg 46%
    09:00 +23°C° 0 mm 1 mps 662 mmHg 41%
    10:00 +24°C° 0 mm 2 mps 662 mmHg 38%
    11:00 +26°C° 0 mm 2 mps 662 mmHg 35%
    12:00 +27°C° 0 mm 3 mps 662 mmHg 32%
    13:00 +27°C° 0 mm 3 mps 662 mmHg 32%
    14:00 +27°C° 0 mm 3 mps 661 mmHg 32%
    15:00 +27°C° 0 mm 3 mps 661 mmHg 31%
    16:00 +26°C° 0 mm 2 mps 661 mmHg 37%
    17:00 +24°C° 0 mm 2 mps 660 mmHg 43%
    18:00 +22°C° 0 mm 1 mps 660 mmHg 49%
    19:00 +21°C° 0 mm 1 mps 660 mmHg 51%
    20:00 +21°C° 0 mm 1 mps 660 mmHg 52%
    21:00 +20°C° 0 mm 1 mps 660 mmHg 53%
    22:00 +20°C° 0 mm 1 mps 660 mmHg 55%
    23:00 +19°C° 0 mm 1 mps 660 mmHg 56%
    Show more